Skip Page Navigation
NASA JPL Caltech
NASA Logo - Jet Propulsion Laboratory + View the NASA Portal
+ Center for Near-Earth Object Studies
JPL Home Earth Solar System Stars & Galaxies Technology
JPL Solar System Dynamics
BODIES ORBITS EPHEMERIDES TOOLS PHYSICAL DATA DISCOVERY FAQ SITE MAP
JPL Small-Body Database Browser
Search: [ help ]  
524435 (2002 CY248)
Classification: TransNeptunian Object          SPK-ID: 2524435
Ephemeris | Orbit Diagram | Orbital Elements | Physical Parameters | Discovery Circumstances ]

[ show orbit diagram ]
Orbital Elements at Epoch 2459000.5 (2020-May-31.0) TDB
Reference: JPL 9 (heliocentric ecliptic J2000)
 Element Value Uncertainty (1-sigma)   Units 
e .1508599387243218 3.4034e-05  
a 45.99328215193331 0.0022743 au
q 39.05473842476221 0.0032852 au
i 7.067009332124803 0.00017003 deg
node 300.7958023807857 0.0003721 deg
peri 338.687816237639 0.014317 deg
M 233.8875051338579 0.017333 deg
tp 2498911.779177780089
(2129-Sep-08.27917778)
4.2325 TDB
period 113930.507197176
311.92
8.4505
0.02314
d
yr
n .003159820919404485 2.3437e-07 deg/d
Q 52.93182587910442 0.0026174 au
  Orbit Determination Parameters
   # obs. used (total)      131  
   data-arc span      5873 days (16.08 yr)  
   first obs. used      2002-02-06  
   last obs. used      2018-03-07  
   planetary ephem.      DE431  
   SB-pert. ephem.      SB431-N16  
   condition code      3  
   norm. resid. RMS      .45595  
   source      ORB  
   producer      Otto Matic  
   solution date      2019-May-30 10:48:50  

Additional Information
 Earth MOID = 38.0393 au 
 Jupiter MOID = 33.8408 au 
 T_jup = 5.947 
[ show covariance matrix ]

Ephemeris | Orbit Diagram | Orbital Elements | Physical Parameters | Discovery Circumstances ]

Physical Parameter Table
Parameter Symbol Value Units Sigma Reference Notes
absolute magnitude H 5.4   n/a E2018X68  

524435 (2002 CY248)          Discovered 2002-Feb-06 by Buie, M. W. at Kitt Peak
Reference: Last Updated: 2019-05-29
Ephemeris | Orbit Diagram | Orbital Elements | Physical Parameters | Discovery Circumstances ]
ABOUT SSD CREDITS/AWARDS PRIVACY/COPYRIGHT GLOSSARY LINKS
FirstGov 2020-Aug-03 13:44 UT
(server date/time)  
NASA Home Page
Site Manager:   Ryan S. Park
Webmaster  Alan B. Chamberlin